Flag for Switzerland Weather past 2 weeks in Zürich, Zurich, Switzerland

Now
29 °F

Chilly.


Feels Like: 29 °F
Forecast: 35 / 39 °F
Wind: 2 mph from South

Location: Zurich Town / Ville.

Current Time: Jan 28, 2015 at 7:48:26 AM

Latest Report: Jan 28, 2015 at 7:00 AM


Visibility: N/A

Pressure: 30.24 "Hg

Humidity: 92%

Dew point: 27 °F

Location of ZürichLocation

Historic Weather in Zürich — Graph

°F

Zürich temperature yesterday

Maximum temperature yesterday: 36 °F (at 2:00 PM)
Minimum temperature yesterday: 31 °F (at 12:00 AM)
Average temperature yesterday: 33 °F

Past Weeks' High & Low Weather Summary

 TemperatureHumidityPressure
High54 °F (Jan 13, 1:00 PM)100% (Jan 17, 8:00 AM)30.47 "Hg (Jan 17, 8:00 AM)
Low26 °F (Jan 26, 7:00 AM)23% (Jan 13, 1:00 PM)29.70 "Hg (Jan 16, 4:00 PM)
Average34 °F85%30.07 "Hg
* Reported Jan 13 6:00 AM — Jan 28 6:00 AM, Zürich, Weather by CustomWeather, © 2014

Note: Actual official high and low records may vary slightly from our data, if they occured in-between our weather recording intervals... More about our weather records

Advertising

Zürich weather history for previous 24 hours

 ConditionsComfort  
Time TempWeatherWind HumidityBarometerVisibility
6:00 AM
Jan 28
29 °FChilly.2 mph92%30.24 "HgN/A
5:00 AM30 °FChilly.1 mph89%30.25 "HgN/A
4:00 AM31 °FChilly.5 mph86%30.26 "HgN/A
3:00 AM32 °FChilly.3 mph86%30.29 "HgN/A
2:00 AM32 °FChilly.6 mph84%30.29 "HgN/A
1:00 AM33 °FChilly.7 mph85%30.29 "HgN/A
12:00 AM32 °FChilly.5 mph87%30.29 "HgN/A
11:00 PM
Jan 27
32 °FChilly.3 mph87%30.30 "HgN/A
10:00 PM33 °FChilly.3 mph86%30.30 "HgN/A
9:00 PM33 °FChilly.6 mph87%30.29 "HgN/A
8:00 PM33 °FChilly.3 mph85%30.29 "HgN/A
7:00 PM34 °FOvercast.5 mph81%30.29 "HgN/A
6:00 PM34 °FChilly.3 mph82%30.29 "HgN/A
5:00 PM34 °FChilly.7 mph80%30.27 "HgN/A
4:00 PM34 °FChilly.7 mph80%30.27 "HgN/A
3:00 PM35 °FChilly.7 mph78%30.27 "HgN/A
2:00 PM36 °FChilly.7 mph79%30.27 "HgN/A
1:00 PM35 °FOvercast.5 mph84%30.28 "HgN/A
12:00 PM34 °FChilly.3 mph88%30.29 "HgN/A
11:00 AM34 °FChilly.2 mph91%30.30 "HgN/A
10:00 AM33 °FChilly.3 mph92%30.29 "HgN/A
9:00 AM33 °FChilly.5 mph93%30.28 "HgN/A
8:00 AM33 °FChilly.2 mph97%30.28 "HgN/A
7:00 AM33 °FChilly.5 mph96%30.25 "HgN/A
Weather by CustomWeather, © 2014

See weather overviewHow to use our weather pages